カタログに戻る

QIANKUN-1

運用中科学SSO
NORAD 57422·PAYLOAD·🇨🇳 China

打ち上げ Jul 22, 2023 から Jiuquan Satellite Launch Center

Loading…

次のパス (今後24時間)

TLE

経年Source: Space-Track

元期: Sep 9, 2026, 00:07 UTC

1 57422U 23103B   26252.00554986 -.00001588  16302-5 -16489-5 0  9997
2 57422  96.1287 290.7042 0014789  34.4271 325.7968 16.04058583180750

AllMySatでQIANKUN-1をリアルタイム追跡

Download on the App Store